Weather History for St. Joseph, MO

Change the Weather History Date:

Saturday, January 5, 2013

  Actual Average Record
Temperature  
Mean Temperature 30 °F 26 °F  
Max Temperature 43 °F 36 °F 65 °F (2012)
Min Temperature 16 °F 17 °F -19 °F (1924)
Degree Days  
Heating Degree Days 35 39  
Month to date heating degree days 219 193  
Since 1 July heating degree days 2315 2406  
Cooling Degree Days 0 0  
Month to date cooling degree days 0 0  
Year to date cooling degree days 0 0  
Moisture  
Dew Point 26 °F    
Average Humidity 77    
Maximum Humidity 91    
Minimum Humidity 62    
Precipitation  
Precipitation T in 0.02 in 1.36 in (1955)
Month to date precipitation T 0.10  
Year to date precipitation T 0.10  
Sea Level Pressure  
Sea Level Pressure 30.16 in    
Wind  
Wind Speed 10 mph (SW)    
Max Wind Speed 20 mph    
Max Gust Speed 26 mph    
Visibility 10 miles    
Events      
T = Trace of Precipitation, MM = Missing Value Source: NWS Daily Summary

Daily Weather History Graph

Daily Weather History Graph

Search for Another Location

Airport:

Trip Planner

Search our weather history database for the weather conditions in past years. The results will help you decide how hot, cold, wet, or windy it might be!

Date:

Astronomy

Jan. 05, 2013 Rise Set
Actual Time 7:41 AM CST 5:09 PM CST
Civil Twilight 7:10 AM CST 5:39 PM CST
Nautical Twilight 6:37 AM CST 6:13 PM CST
Astronomical Twilight 6:04 AM CST 6:46 PM CST
Moon 12:48 AM CST (1/5) 11:59 AM CST (1/5)
Length of Visible Light 10h 28m
Length of Day
9h 28m
Last Quarter, 44% of the Moon is Illuminated
Jan 5
Last Quarter
Jan 11
New
Jan 18
First Quarter
Jan 26
Full
Feb 3
Last Quarter

Hourly Weather History & Observations

Time (CST) Temp. Windchill Dew Point Humidity Pressure Visibility Wind Dir Wind Speed Gust Speed Precip Events Conditions
12:53 AM 19.9 °F 14.9 °F 18.0 °F 92% 30.23 in 8.0 mi SSE 3.5 mph - N/A   Clear
1:53 AM 21.0 °F 14.6 °F 18.0 °F 88% 30.23 in 10.0 mi SSW 4.6 mph - N/A   Clear
2:53 AM 24.1 °F - 19.9 °F 84% 30.23 in 10.0 mi Calm Calm - N/A   Mostly Cloudy
3:53 AM 24.1 °F 17.0 °F 19.9 °F 84% 30.21 in 10.0 mi South 5.8 mph - N/A   Partly Cloudy
4:53 AM 19.0 °F 13.9 °F 18.0 °F 96% 30.20 in 10.0 mi South 3.5 mph - N/A   Scattered Clouds
5:53 AM 28.0 °F 22.8 °F 23.0 °F 81% 30.19 in 10.0 mi South 4.6 mph - N/A   Mostly Cloudy
6:53 AM 32.0 °F 24.2 °F 26.1 °F 79% 30.18 in 10.0 mi SSW 9.2 mph - N/A   Overcast
7:53 AM 35.1 °F 26.4 °F 28.9 °F 78% 30.18 in 10.0 mi SSW 12.7 mph - 0.00 in   Overcast
8:53 AM 35.1 °F 26.9 °F 30.0 °F 82% 30.18 in 10.0 mi SSW 11.5 mph - 0.00 in   Overcast
9:27 AM 35.6 °F 27.1 °F 30.2 °F 81% 30.15 in 10.0 mi South 12.7 mph - 0.00 in   Overcast
9:53 AM 35.1 °F 25.5 °F 30.9 °F 85% 30.17 in 10.0 mi South 15.0 mph - 0.00 in   Overcast
10:22 AM 35.6 °F 27.5 °F 30.2 °F 81% 30.15 in 10.0 mi South 11.5 mph - 0.00 in   Overcast
10:53 AM 36.0 °F 28.5 °F 30.9 °F 82% 30.17 in 10.0 mi SSW 10.4 mph - 0.00 in   Overcast
11:53 AM 39.0 °F 30.6 °F 30.9 °F 73% 30.12 in 10.0 mi SSW 15.0 mph - 0.00 in   Partly Cloudy
12:53 PM 39.9 °F 32.1 °F 30.9 °F 70% 30.09 in 10.0 mi SW 13.8 mph 21.9 mph N/A   Clear
1:53 PM 41.0 °F 33.9 °F 30.9 °F 67% 30.06 in 10.0 mi SW 12.7 mph - N/A   Overcast
2:53 PM 43.0 °F 36.4 °F 30.9 °F 62% 30.06 in 10.0 mi WSW 12.7 mph - N/A   Mostly Cloudy
3:53 PM 42.1 °F 34.2 °F 30.0 °F 62% 30.06 in 10.0 mi WSW 16.1 mph 26.5 mph N/A   Scattered Clouds
4:53 PM 39.9 °F 31.8 °F 28.9 °F 65% 30.09 in 10.0 mi West 15.0 mph - N/A   Partly Cloudy
5:53 PM 37.0 °F 30.4 °F 28.0 °F 70% 30.12 in 10.0 mi West 9.2 mph - N/A   Clear
6:53 PM 34.0 °F 26.6 °F 26.1 °F 73% 30.14 in 10.0 mi WNW 9.2 mph - N/A   Clear
7:53 PM 32.0 °F 25.6 °F 23.0 °F 69% 30.16 in 10.0 mi West 6.9 mph - N/A   Clear
8:53 PM 30.9 °F 23.5 °F 23.0 °F 72% 30.17 in 10.0 mi WSW 8.1 mph - N/A   Clear
9:53 PM 28.0 °F 24.2 °F 21.9 °F 78% 30.18 in 10.0 mi West 3.5 mph - N/A   Clear
10:53 PM 30.0 °F 21.7 °F 21.9 °F 72% 30.19 in 10.0 mi West 9.2 mph - N/A   Clear
11:53 PM 28.9 °F 17.3 °F 21.0 °F 72% 30.21 in 10.0 mi North 16.1 mph 23.0 mph N/A   Clear